• In Austria
  • List of Countries
  • For 7 days
  • Water Temperature
  • Satellite Maps
  • Weather Map
  • News
  • Weather Widgets
  • user-avatar
    Login

    Hourly Weather La-Plata

    Today, 24 May, Thursday

    Time Temperature Precipitation Wind Pressure Humidity
    00:00 +11°C° 0 mm 3 mps 766 mmHg 79%
    01:00 +11°C° 0 mm 3 mps 766 mmHg 81%
    02:00 +11°C° 0 mm 4 mps 766 mmHg 82%
    03:00 +11°C° 0 mm 4 mps 766 mmHg 83%
    04:00 +11°C° 0 mm 4 mps 766 mmHg 84%
    05:00 +11°C° 0 mm 4 mps 766 mmHg 85%
    06:00 +11°C° 0 mm 4 mps 766 mmHg 85%
    07:00 +11°C° 0 mm 4 mps 767 mmHg 84%
    08:00 +11°C° 0 mm 3 mps 767 mmHg 84%
    09:00 +13°C° 0 mm 3 mps 767 mmHg 77%
    10:00 +16°C° 0 mm 3 mps 767 mmHg 71%
    11:00 +18°C° 0 mm 3 mps 767 mmHg 65%
    12:00 +18°C° 0 mm 3 mps 766 mmHg 62%
    13:00 +19°C° 0 mm 3 mps 766 mmHg 60%
    14:00 +20°C° 0 mm 3 mps 766 mmHg 57%
    15:00 +18°C° 0 mm 3 mps 766 mmHg 60%
    16:00 +17°C° 0 mm 3 mps 765 mmHg 63%
    17:00 +16°C° 0 mm 2 mps 765 mmHg 66%
    18:00 +14°C° 0 mm 3 mps 766 mmHg 66%
    19:00 +14°C° 0 mm 3 mps 766 mmHg 67%
    20:00 +13°C° 0 mm 3 mps 766 mmHg 68%
    21:00 +13°C° 0 mm 3 mps 766 mmHg 69%
    22:00 +13°C° 0 mm 3 mps 766 mmHg 70%
    23:00 +12°C° 0 mm 3 mps 766 mmHg 71%

    Tomorrow, 25 May, Friday

    Time Temperature Precipitation Wind Pressure Humidity
    00:00 +12°C° 0 mm 4 mps 766 mmHg 72%
    01:00 +12°C° 0 mm 4 mps 766 mmHg 74%
    02:00 +11°C° 0 mm 4 mps 766 mmHg 75%
    03:00 +11°C° 0 mm 4 mps 766 mmHg 76%
    04:00 +11°C° 0 mm 4 mps 766 mmHg 78%
    05:00 +10°C° 0 mm 3 mps 766 mmHg 79%
    06:00 +11°C° 0 mm 3 mps 766 mmHg 78%
    07:00 +11°C° 0 mm 3 mps 766 mmHg 77%
    08:00 +11°C° 0 mm 3 mps 766 mmHg 77%
    09:00 +13°C° 0 mm 4 mps 766 mmHg 71%
    10:00 +15°C° 0 mm 4 mps 766 mmHg 65%
    11:00 +17°C° 0 mm 4 mps 766 mmHg 59%
    12:00 +18°C° 0 mm 4 mps 766 mmHg 57%
    13:00 +18°C° 0 mm 4 mps 765 mmHg 56%
    14:00 +19°C° 0 mm 4 mps 764 mmHg 54%
    15:00 +18°C° 0 mm 4 mps 764 mmHg 58%
    16:00 +17°C° 0 mm 4 mps 764 mmHg 62%
    17:00 +15°C° 0 mm 4 mps 764 mmHg 67%
    18:00 +14°C° 0 mm 4 mps 764 mmHg 69%
    19:00 +14°C° 0 mm 4 mps 764 mmHg 71%
    20:00 +13°C° 0 mm 4 mps 764 mmHg 73%
    21:00 +13°C° 0 mm 4 mps 763 mmHg 76%
    22:00 +13°C° 0 mm 5 mps 763 mmHg 78%
    23:00 +13°C° 0 mm 5 mps 763 mmHg 80%

    Day after tomorrow, 26 May, Saturday

    Time Temperature Precipitation Wind Pressure Humidity
    00:00 +13°C° 0 mm 5 mps 763 mmHg 81%
    01:00 +13°C° 0 mm 5 mps 763 mmHg 82%
    02:00 +13°C° 0 mm 5 mps 762 mmHg 83%
    03:00 +12°C° 0 mm 5 mps 762 mmHg 83%
    04:00 +12°C° 0 mm 5 mps 762 mmHg 82%
    05:00 +12°C° 0 mm 5 mps 762 mmHg 82%
    06:00 +12°C° 0 mm 5 mps 762 mmHg 80%
    07:00 +12°C° 0 mm 5 mps 762 mmHg 79%
    08:00 +13°C° 0 mm 5 mps 762 mmHg 77%
    09:00 +14°C° 0 mm 5 mps 762 mmHg 71%
    10:00 +15°C° 0 mm 5 mps 762 mmHg 65%
    11:00 +17°C° 0 mm 5 mps 762 mmHg 60%
    12:00 +17°C° 0 mm 5 mps 761 mmHg 59%
    13:00 +19°C° 0 mm 5 mps 760 mmHg 59%
    14:00 +20°C° 0 mm 5 mps 760 mmHg 58%
    15:00 +19°C° 0 mm 5 mps 759 mmHg 64%
    16:00 +18°C° 0 mm 4 mps 759 mmHg 69%
    17:00 +17°C° 0 mm 4 mps 759 mmHg 74%
    18:00 +15°C° 0 mm 4 mps 759 mmHg 77%
    19:00 +15°C° 0 mm 4 mps 760 mmHg 81%
    20:00 +15°C° 0 mm 4 mps 760 mmHg 84%
    21:00 +15°C° 0 mm 4 mps 761 mmHg 86%
    22:00 +16°C° 0 mm 3 mps 761 mmHg 87%
    23:00 +14°C° 0 mm 3 mps 761 mmHg 89%

    27 May, Sunday

    Time Temperature Precipitation Wind Pressure Humidity
    00:00 +14°C° 0 mm 3 mps 761 mmHg 90%
    01:00 +14°C° 0 mm 3 mps 762 mmHg 91%
    02:00 +15°C° 0 mm 2 mps 762 mmHg 92%
    03:00 +15°C° 0 mm 2 mps 762 mmHg 93%
    04:00 +15°C° 0 mm 2 mps 762 mmHg 94%
    05:00 +14°C° 0 mm 2 mps 762 mmHg 94%
    06:00 +15°C° 0 mm 2 mps 762 mmHg 93%
    07:00 +15°C° 0 mm 2 mps 763 mmHg 93%
    08:00 +15°C° 0 mm 1 mps 763 mmHg 92%
    09:00 +16°C° 0 mm 1 mps 763 mmHg 85%
    10:00 +19°C° 0 mm 1 mps 763 mmHg 78%
    11:00 +18°C° 0 mm 0 mps 763 mmHg 72%
    12:00 +21°C° 0 mm 1 mps 763 mmHg 70%
    13:00 +22°C° 0 mm 1 mps 762 mmHg 68%
    14:00 +22°C° 0 mm 1 mps 762 mmHg 67%
    15:00 +20°C° 0 mm 2 mps 762 mmHg 72%
    16:00 +19°C° 0 mm 2 mps 762 mmHg 78%
    17:00 +18°C° 0 mm 2 mps 761 mmHg 83%
    18:00 +18°C° 0 mm 3 mps 762 mmHg 86%
    19:00 +17°C° 0 mm 3 mps 762 mmHg 89%
    20:00 +17°C° 0 mm 4 mps 762 mmHg 92%
    21:00 +17°C° 0 mm 4 mps 762 mmHg 92%
    22:00 +17°C° 0 mm 4 mps 762 mmHg 93%
    23:00 +18°C° 0 mm 4 mps 762 mmHg 93%

    28 May, Monday

    Time Temperature Precipitation Wind Pressure Humidity
    00:00 +18°C° 0.1 mm 4 mps 761 mmHg 93%
    01:00 +18°C° 0.1 mm 4 mps 761 mmHg 92%
    02:00 +18°C° 0.1 mm 4 mps 761 mmHg 92%
    03:00 +19°C° 0.2 mm 4 mps 760 mmHg 92%
    04:00 +19°C° 0.2 mm 5 mps 760 mmHg 92%
    05:00 +19°C° 0.2 mm 5 mps 759 mmHg 92%
    06:00 +19°C° 0.3 mm 5 mps 759 mmHg 91%
    07:00 +19°C° 0.3 mm 6 mps 759 mmHg 90%
    08:00 +20°C° 0.3 mm 6 mps 759 mmHg 89%
    09:00 +20°C° 0.2 mm 6 mps 759 mmHg 87%
    10:00 +21°C° 0.2 mm 6 mps 758 mmHg 85%
    11:00 +21°C° 0.2 mm 6 mps 758 mmHg 83%
    12:00 +22°C° 0.4 mm 6 mps 757 mmHg 83%
    13:00 +22°C° 0.4 mm 6 mps 757 mmHg 82%
    14:00 +23°C° 0.4 mm 6 mps 756 mmHg 81%
    15:00 +22°C° 0.5 mm 6 mps 756 mmHg 82%
    16:00 +22°C° 0.5 mm 6 mps 756 mmHg 83%
    17:00 +22°C° 0.5 mm 6 mps 755 mmHg 84%
    18:00 +22°C° 0.8 mm 6 mps 755 mmHg 86%
    19:00 +21°C° 0.8 mm 6 mps 755 mmHg 87%
    20:00 +21°C° 0.8 mm 6 mps 755 mmHg 89%
    21:00 +21°C° 0.4 mm 7 mps 755 mmHg 88%
    22:00 +22°C° 0.4 mm 7 mps 755 mmHg 87%
    23:00 +22°C° 0.4 mm 8 mps 755 mmHg 86%

    29 May, Tuesday

    Time Temperature Precipitation Wind Pressure Humidity
    00:00 +22°C° 0.9 mm 8 mps 754 mmHg 84%
    01:00 +22°C° 0.9 mm 8 mps 754 mmHg 83%
    02:00 +21°C° 0.9 mm 8 mps 754 mmHg 81%
    03:00 +21°C° 0.3 mm 8 mps 754 mmHg 80%
    04:00 +21°C° 0.3 mm 7 mps 754 mmHg 78%
    05:00 +21°C° 0.3 mm 7 mps 754 mmHg 77%
    06:00 +20°C° 0.8 mm 6 mps 754 mmHg 79%
    07:00 +20°C° 0.8 mm 5 mps 755 mmHg 81%
    08:00 +20°C° 0.8 mm 4 mps 756 mmHg 83%
    09:00 +21°C° 0.5 mm 4 mps 756 mmHg 81%
    10:00 +21°C° 0.5 mm 4 mps 756 mmHg 78%
    11:00 +22°C° 0.5 mm 4 mps 757 mmHg 76%
    12:00 +21°C° 0.3 mm 4 mps 756 mmHg 77%
    13:00 +21°C° 0.3 mm 4 mps 756 mmHg 79%
    14:00 +21°C° 0.3 mm 4 mps 756 mmHg 81%
    15:00 +20°C° 0.8 mm 4 mps 756 mmHg 81%
    16:00 +19°C° 0.8 mm 4 mps 757 mmHg 82%
    17:00 +18°C° 0.8 mm 4 mps 757 mmHg 82%
    18:00 +17°C° 0.7 mm 4 mps 758 mmHg 81%
    19:00 +16°C° 0.7 mm 5 mps 758 mmHg 79%
    20:00 +16°C° 0.7 mm 6 mps 759 mmHg 78%
    21:00 +15°C° 1.7 mm 6 mps 758 mmHg 79%
    22:00 +15°C° 1.7 mm 7 mps 758 mmHg 80%
    23:00 +14°C° 1.7 mm 7 mps 758 mmHg 81%
    Show more